Regional Weather Roundup
Issued by NWS

Home | Current Version | Previous Version | Graphics & Text | Print | Product List | Glossary On
Versions: 1 2 3 4 5 6 7 8 9 10 11 12 13 14 15 16 17 18 19 20 21 22 23 24 25 26 27 28 29 30 31 32 33 34 35 36 37 38 39 40 41 42 43 44 45 46 47 48 49 50
000
ASUS43 KMKX 270328
RWRWI

WISCONSIN REGIONAL WEATHER ROUNDUP
NATIONAL WEATHER SERVICE MILWAUKEE/SULLIVAN WI
1000 PM CDT TUE MAY 26 2015

NOTE: "FAIR" INDICATES FEW OR NO CLOUDS BELOW 12,000 FEET WITH NO
SIGNIFICANT WEATHER AND/OR OBSTRUCTIONS TO VISIBILITY.

WIZ001-002-006>008-014>016-023>028-270400-
NORTHWEST WISCONSIN

CITY           SKY/WX    TMP DP  RH WIND       PRES   REMARKS
SUPERIOR ARPT  CLOUDY    51  50  97 CALM      29.79R
ASHLAND        LGT RAIN  52  52 100 CALM      29.78R
HAYWARD        LGT RAIN  54  52  93 N6        29.76S
SIREN          CLOUDY    55  55  97 NW5       29.78R
CUMBERLAND     RAIN      54  54 100 N6        29.76R
RICE LAKE      RAIN      55  53  91 NW3       29.77R
CHETEK         DRIZZLE   56  55  97 NW3       29.75R
LADYSMITH      RAIN      55  54  95 N12       29.74S
EAU CLAIRE     LGT RAIN  58  56  93 NW7       29.74R
MENOMONIE      DRIZZLE   58  58  99 NW5       29.76R
NEW RICHMOND   CLOUDY    56  56 100 NW8       29.79R
OSCEOLA        CLOUDY    56  56 100 NW5       29.81R
$$

WIZ003>005-009-010-017-018-270400-
NORTH CENTRAL WISCONSIN

CITY           SKY/WX    TMP DP  RH WIND       PRES   REMARKS
MANITOWISH WTR DRIZZLE   55  55 100 N7        29.72R
ARBOR VITAE    RAIN      59  57  95 N7        29.71S
WOODRUFF       RAIN      59  57  95 N7        29.71S
RHINELANDER    CLOUDY    59  58  96 N8        29.68S
EAGLE RIVER    RAIN      58  58 100 N7        29.69S
LAND O LAKES   LGT RAIN  58  58  99 N5        29.71S
PHILLIPS       DRIZZLE   56  56  99 N6        29.71R
TOMAHAWK       CLOUDY    59  58  96 N3        29.68R
MEDFORD        HVY RAIN  59  58  96 N10       29.68R
MERRILL        RAIN      61  61 100 N7        29.66R
$$

WIZ029-030-035-036-043>047-270400-
CENTRAL WISCONSIN

CITY           SKY/WX    TMP DP  RH WIND       PRES   REMARKS
WAUSAU         CLOUDY    63  61  93 CALM      29.62R
MOSINEE        CLOUDY    63  63 100 N5        29.64R
MARSHFIELD     HVY RAIN  62  59  90 NW20      29.64R FOG
STEVENS POINT  CLOUDY    61  60  98 NE3       29.62S
WAUPACA        CLOUDY    64  63  95 SW13G21   29.64R
WAUTOMA        CLOUDY    63  63 100 SW16G22   29.67R
WISC RAPIDS    LGT RAIN  62  60  93 SW12      29.62R FOG
CAMP DOUGLAS   MOCLDY   N/A N/A N/A W16         N/A
$$

WIZ011>013-019>022-031-037>040-048>050-270400-
NORTHEAST WISCONSIN

CITY           SKY/WX    TMP DP  RH WIND       PRES   REMARKS
ANTIGO         CLOUDY    59  59  99 N8        29.64S
SHAWANO        MOCLDY    66  64  93 CALM      29.62R
OCONTO         MOCLDY    59  59 100 SE5       29.62S
STURGEON BAY   MOCLDY    52  46  82 S9        29.67S
GREEN BAY      CLOUDY    67  62  84 S15G23    29.63S
MANITOWOC      PTCLDY    62  60  93 SW12G21   29.68R
APPLETON       CLOUDY    64  63  94 SW20G26   29.65R
CLINTONVILLE   CLOUDY    64  63  94 S5        29.61S
OSHKOSH        CLOUDY    65  57  75 SW14G28   29.67R
$$

WIZ032>034-041-042-053>061-270400-
SOUTHWEST WISCONSIN

CITY           SKY/WX    TMP DP  RH WIND       PRES   REMARKS
LA CROSSE      CLOUDY    63  58  83 W12G20    29.75R
SPARTA         CLOUDY    60  58  94 W8        29.75R
VIROQUA        CLOUDY    60  60 100 W12       29.78R
BOSCOBEL       PTCLDY    63  59  87 SW6       29.78R
PRAIRIE DU CHI FAIR      62  57  84 SW5       29.79R
PLATTEVILLE    CLEAR     61  59  94 SW5       29.81R
$$

WIZ056-057-062-063-064-067-068-270400-
SOUTH CENTRAL WISCONSIN

CITY           SKY/WX    TMP DP  RH WIND       PRES   REMARKS
REEDSBURG      CLOUDY    62  58  86 SW16G23   29.74R
BARABOO/DELLS  CLOUDY    62  56  81 W13G18    29.74R
LONE ROCK      MOCLDY    63  59  87 W5        29.78R
MINERAL POINT  CLEAR     63  59  88 W9        29.80R
MADISON        PTCLDY    64  57  78 SW7       29.77R
MIDDLETON      MOCLDY    64  58  81 SW9       29.78R
WATERTOWN      CLEAR    N/A N/A N/A SW12G21   29.77R
MONROE         CLOUDY    64  59  82 SW8       29.81R
JANESVILLE     MOCLDY    64  61  88 SW6       29.80R
$$

WIZ051-052-058>065-066-070>072-270400-
SOUTHEAST WISCONSIN

CITY           SKY/WX    TMP DP  RH WIND       PRES   REMARKS
MILWAUKEE      PTCLDY    67  56  67 SW14G22   29.78R
WAUKESHA       CLEAR     63  55  77 SW12G17   29.79R
MILWAUKEE/TIMM CLEAR     64  55  72 SW13G18   29.77R
RACINE         CLEAR     67  58  72 SW9       29.80R
BURLINGTON     CLEAR     61  57  88 SW7       29.81R
KENOSHA        CLEAR     66  59  78 SW14      29.81R
FOND DU LAC    CLOUDY    65  57  75 SW17G30   29.70R
SHEBOYGAN      MOCLDY    65  57  75 SW16G29   29.70R
WEST BEND      MOCLDY    64  55  72 SW18G25   29.74R
JUNEAU         MOCLDY    63  58  86 SW15G22   29.76R
$$

LSZ147-162-270400-
LAKE SUPERIOR

STATION/POSITION TIME  TEMP    WIND        PRES    WAVE
                       AIR SEA DIR/SP/G            HT/PER
                 (UTC) (F)     (DEG/KT/KT) (MB)    (FT/S)
W MID LAKE BUOY  0250   41 37   10/  6/  6 1080.0F   0
DEVILS ISLAND    0300   48     240/  2/  3 1085.0R
PORT WING        0240   51     180/  2/  3 1088.0R
SAXON HARBOR     0240   46        CALM     1081.0R
$$

LMZ867-665-643>646-270400-
LAKE MICHIGAN

STATION/POSITION TIME  TEMP    WIND        PRES    WAVE
                       AIR SEA DIR/SP/G            HT/PER
                 (UTC) (F)     (DEG/KT/KT) (MB)    (FT/S)
CHAMBERS ISLAND  0200   56     100/  6/ 12 1041.0F
N MID LAKE BUOY  0250   44 37  180/  4/  6 1057.0S   1/ 5
NORTHPORT PIER   0200   47     140/  7/ 11 1051.0F
SISTER BAY       0248   51     170/ 12/ 19   N/A
ALGOMA LAKESHORE 0038          190/  6/  9   N/A
KEWAUNEE LAKESHO 0300   48     180/ 12/ 13 1039.0R
SHEBOYGAN LAKESH 0300   66     230/ 23/ 27 1060.0R
PORT WASHINGTON  0240   68     250/ 12/ 19 1075.0R
ATWATER BUOY     0300   65 45  220/ 17/ 21   N/A
MILWAUKEE LAKESH 0300   67     230/ 16/ 21   N/A
S MID LAKE BUOY  0250   47 38  200/ 14/ 14   N/A     2/ 4
KENOSHA   LAKESH 0200   70     230/ 10/ 18 1085.0R
$$

TC  - TEMPERATURE IN CELSIUS
VSB - VISIBILITY IN STATUTE MILES
WCI - WIND CHILL INDEX
HX  - HEAT INDEX



USA.gov is the U.S. government's official web portal to all federal, state and local government web resources and services.